Погода в Нюрбе

Россия / Республика Саха (Якутия)     63°16′42″N   118°20′11″E
темп.,
°C
ветер,
м/с
пор.,
м/с
влажн.,
%
обл.,
%
осадки,
мм/ч
давл.,
гПа
погр.,
м
28 сентября, вт
вт2800:00+1ссв6148495 0.0 1016624
03:000ссв5138835 0.0 1015550
06:00−1ссв4129142 0.0 1015528
09:00+1ссв4107851 0.0 1015677
12:00+4ссв5864100 0.0 10151010
15:00+5ссв5863100 0.0 10151085
18:00+4ссв4865100 0.0 10151106
21:00+4ссв476498 0.0 1016899
29 сентября, ср
ср2900:00−1с39845 0.0 1017290
03:00−2с39835 0.0 1018291
06:00−3с310905 0.0 1018330
09:00−2с498230 0.0 1018442
12:00+2ссв456164 0.0 1017830
15:00+5ссв46525 0.0 10161046
18:00+4ссв37585 0.0 1016306
21:00−1с24785 0.0 101772
30 сентября, чт
чт3000:00−2с23875 0.0 101664
03:00−3с22935 0.0 101537
06:00−4ссз23955 0.0 101546
09:00−2ссз36815 0.0 1014223
12:00+3с345796 0.0 1013655
15:00+5с3449100 0.0 1011912
18:00+2ссз226179 0.0 101130
21:00−1ссз227567 0.0 101111
1 октября, пт
пт100:00−3сз11815 0.0 101111
03:00−4зсз11865 0.0 101010
06:00−4зсз11905 0.0 101011
09:00−2зсз137623 0.0 1009118
12:00+4сз24506 0.0 1008621
15:00+6сз343537 0.0 1007987
18:00+3зсз225298 0.0 100739
21:000зсз2272100 0.0 100819
2 октября, сб
сб200:00−1зсз228598 0.0 100824
03:00−2сз2390100 0.0 100942
06:00−3сз2393100 0.0 101056
09:00−2сз258348 0.0 1012185
12:00+3ссз34598 0.0 1012717
15:00+5ссз344956 0.0 10131102
18:00+2сз226166 0.0 101416
21:00−1ссз117490 0.0 101611